STARLINK-11330, 62011

Orbit data source: Space-Track

STARLINK-11330, 62011 is a payload satellite owned by SpaceX/Seattle (US) in LEO that was launched on Mon, 18 Nov 2024 UTC via an FALCON 9 launch vehicle from the Air Force Western Test Range (AFWTR). Payload-class satellites include a variety of spacecraft equipped with specific instruments for various scientific and technological missions. These include communications satellites like Starlink; space stations such as the ISS; scientific satellites like the Hubble; Earth observation satellites from companies like Planet Labs, Umbra, and HawkEye 360; GPS; miniature CubeSats for education and research; and military/defense satellites.

Loading next visibility...
Identifier
62011, 2024-213D
Orbit
LEO
Last TLE update
10 hours ago
Origin
Manufacturer
SpaceX/Seattle
Mission
Operational Commercial Communications
Bus & Motor
STARLINK V2M, Unknown motor
Mass
730 kg wet, ~700 kg dry
Launch date (UTC)
2024-11-18 (7 months ago)
Launch vehicle
FALCON 9
Launch site
Air Force Western Test Range (AFWTR)
Object type
Payload
Rocket body
Debris
Shape & HBR
Box + 2 Pan, 29 m
Radar Cross Section
36.964 m², Large (>1 m²)

Expand to show TLE details & history

TLE from 10 hours ago
0 STARLINK-11330
1 62011U 24213D   25181.75990547  .00118006  00000-0  96365-3 0  9993
2 62011  53.1574 203.4138 0000918  98.5286 261.5836 15.69746044 35346
Epoch: 2025-06-30T18:14Z
TLE epoch observation values (Epoch: 2025-06-30T18:14:15.832Z)
Latitude
-0.00002°
Longitude
10.78272°
Altitude
360.629 km
Speed
7.694 km/s
True Right ascension
13h 33m 39s
True Declination
0° 00' 00"
Sunlit
Object was in daylight at epoch
Visualization orbit readout
Latitude
47.40781°
Longitude
134.65907°
Altitude
363.977 km
Speed
7.697 km/s
Apparent Right ascension
00h 47m 10s
Apparent Declination
7° 07' 00"
Sunlit
Object is in daylight
Visualization observer readout
Local Sidereal Time
15:30:33
Azimuth
48.376° ENE
Elevation
-29.751°
Doppler factor
1
Orbital elements
Apogee altitude
360.503 km
Perigee altitude
359.266 km
Semi-major axis
6,738.022 km
Eccentricity
0.00009
Inclination
53.1574°
RAAN
203.4138°
Arg. of periapsis
98.5286°
True anomaly
Unknown
Mean anomaly
261.5836°
Eccentric anomaly
Unknown
Mean motion
3.92414 °/min
Orbital period
91.74 mins
BSTAR
0.00096365
Loading maneuver chart data...
Loading SW <> Apogee altitude chart data...
Loading historical data...
Loading historical data...
Loading historical data...
Loading historical data...
Loading historical data...
Loading historical data...
Loading historical data...

STARLINK-11330 Visibility forecast

Observer location: undefined°, undefined°

Span
Click to sort rows by Start time (UTC) header in descending order
Start Az.
Max El. time (UTC)
Max El. Az.
Max El.
End time (UTC)
End Az.
4 mins2025-07-01 05:09:11.228Z269.303° W2025-07-01 05:11:11.228Z315.659° NNW24.233°2025-07-01 05:13:11.228Z18.233° NNE
|